Weather History for Kremmling, CO

Change the Weather History Date:

Wednesday, July 24, 2013

  Actual Average (KEGE) Record (KEGE)
Temperature  
Mean Temperature 68 °F -  
Max Temperature 89 °F 82 °F 102 °F (2008)
Min Temperature 46 °F 47 °F 40 °F (1959)
Cooling Degree Days 2    
Growing Degree Days 18 (Base 50)    
Moisture  
Dew Point 33 °F    
Average Humidity 33    
Maximum Humidity 62    
Minimum Humidity 10    
Precipitation  
Precipitation 0.00 in - - ()
Sea Level Pressure  
Sea Level Pressure 30.32 in    
Wind  
Wind Speed 3 mph (WSW)    
Max Wind Speed 22 mph    
Max Gust Speed 30 mph    
Visibility 10 miles    
Events      
Averages and records for this station are not official NWS values.
T = Trace of Precipitation, MM = Missing Value Source: NWS Daily Summary

Daily Weather History Graph

Daily Weather History Graph

Search for Another Location

Airport:

Trip Planner

Search our weather history database for the weather conditions in past years. The results will help you decide how hot, cold, wet, or windy it might be!

Date:

Astronomy

Jul. 24, 2013 Rise Set
Actual Time 5:56 AM MDT 8:26 PM MDT
Civil Twilight 5:25 AM MDT 8:57 PM MDT
Nautical Twilight 4:47 AM MDT 9:36 PM MDT
Astronomical Twilight 4:03 AM MDT 10:18 PM MDT
Moon 9:34 PM MDT (7/24) 8:20 AM MDT (7/24)
Length of Visible Light 15h 31m
Length of Day
14h 29m
Waning Gibbous, 94% of the Moon is Illuminated
Jul 24
Waning Gibbous
Jul 29
Last Quarter
Aug 6
New
Aug 14
First Quarter
Aug 20
Full

Hourly Weather History & Observations

Time (MDT) Temp. Dew Point Humidity Pressure Visibility Wind Dir Wind Speed Gust Speed Precip Events Conditions
12:16 AM 53.6 °F 33.8 °F 47% 30.34 in 10.0 mi Calm Calm - N/A   Clear
12:36 AM 50.0 °F 30.2 °F 47% 30.34 in 10.0 mi Calm Calm - N/A   Clear
12:56 AM 50.0 °F 28.4 °F 43% 30.34 in 10.0 mi Calm Calm - N/A   Clear
1:16 AM 50.0 °F 32.0 °F 50% 30.34 in 10.0 mi Calm Calm - N/A   Clear
1:36 AM 51.8 °F 30.2 °F 44% 30.35 in 10.0 mi Calm Calm - N/A   Clear
1:56 AM 50.0 °F 30.2 °F 47% 30.34 in 10.0 mi Calm Calm - N/A   Clear
2:16 AM 51.8 °F 32.0 °F 47% 30.34 in 10.0 mi Calm Calm - N/A   Clear
2:36 AM 50.0 °F 30.2 °F 47% 30.33 in 10.0 mi Calm Calm - N/A   Clear
2:56 AM 50.0 °F 30.2 °F 47% 30.34 in 10.0 mi Calm Calm - N/A   Clear
3:15 AM 50.0 °F 32.0 °F 50% 30.34 in 10.0 mi Calm Calm - N/A   Clear
3:36 AM 50.0 °F 35.6 °F 58% 30.34 in 10.0 mi Calm Calm - N/A   Clear
3:56 AM 50.0 °F 32.0 °F 50% 30.33 in 10.0 mi Calm Calm - N/A   Clear
4:16 AM 50.0 °F 32.0 °F 50% 30.33 in 10.0 mi Calm Calm - N/A   Clear
4:36 AM 50.0 °F 32.0 °F 50% 30.34 in 10.0 mi Calm Calm - N/A   Clear
4:56 AM 50.0 °F 32.0 °F 50% 30.34 in 10.0 mi Calm Calm - N/A   Clear
5:15 AM 50.0 °F 32.0 °F 50% 30.35 in 10.0 mi Calm Calm - N/A   Clear
5:36 AM 46.4 °F 32.0 °F 57% 30.36 in 10.0 mi Calm Calm - N/A   Clear
5:55 AM 46.4 °F 33.8 °F 62% 30.37 in 10.0 mi Calm Calm - N/A   Clear
6:15 AM 46.4 °F 32.0 °F 57% 30.37 in 10.0 mi Calm Calm - N/A   Clear
6:35 AM 46.4 °F 32.0 °F 57% 30.37 in 10.0 mi Calm Calm - N/A   Clear
6:56 AM 50.0 °F 32.0 °F 50% 30.37 in 10.0 mi Calm Calm - N/A   Clear
7:16 AM 50.0 °F 33.8 °F 54% 30.37 in 10.0 mi Calm Calm - N/A   Clear
7:36 AM 53.6 °F 33.8 °F 47% 30.38 in 10.0 mi Calm Calm - N/A   Clear
7:56 AM 53.6 °F 32.0 °F 44% 30.38 in 10.0 mi Calm Calm - N/A   Clear
8:16 AM 55.4 °F 33.8 °F 44% 30.37 in 10.0 mi Calm Calm - N/A   Clear
8:36 AM 55.4 °F 32.0 °F 41% 30.38 in 10.0 mi Calm Calm - N/A   Clear
8:56 AM 59.0 °F 32.0 °F 36% 30.37 in 10.0 mi Calm Calm - N/A   Clear
9:16 AM 62.6 °F 32.0 °F 32% 30.37 in 10.0 mi Calm Calm - N/A   Clear
9:36 AM 66.2 °F 32.0 °F 28% 30.36 in 10.0 mi Calm Calm - N/A   Clear
9:56 AM 69.8 °F 32.0 °F 25% 30.35 in 10.0 mi Calm Calm - N/A   Clear
10:16 AM 71.6 °F 32.0 °F 23% 30.34 in 10.0 mi Calm Calm - N/A   Clear
10:36 AM 73.4 °F 33.8 °F 23% 30.33 in 10.0 mi West 3.5 mph - N/A   Clear
10:56 AM 71.6 °F 33.8 °F 25% 30.33 in 10.0 mi Calm Calm - N/A   Clear
11:16 AM 73.4 °F 33.8 °F 23% 30.33 in 10.0 mi Calm Calm - N/A   Clear
11:36 AM 73.4 °F 33.8 °F 23% 30.32 in 10.0 mi Calm Calm - N/A   Clear
11:56 AM 78.8 °F 32.0 °F 18% 30.32 in 10.0 mi South 3.5 mph - N/A   Clear
12:16 PM 80.6 °F 28.4 °F 15% 30.30 in 10.0 mi SW 5.8 mph - N/A   Clear
12:36 PM 82.4 °F 23.0 °F 11% 30.29 in 10.0 mi Calm Calm - N/A   Clear
12:56 PM 87.8 °F 24.8 °F 10% 30.29 in 10.0 mi WSW 16.1 mph 20.7 mph N/A   Clear
1:16 PM 86.0 °F 24.8 °F 11% 30.28 in 10.0 mi West 11.5 mph 21.9 mph N/A   Scattered Clouds
1:35 PM 80.6 °F 26.6 °F 14% 30.28 in 10.0 mi WSW 15.0 mph 19.6 mph N/A   Scattered Clouds
1:56 PM 87.8 °F 30.2 °F 13% 30.28 in 10.0 mi WSW 19.6 mph 27.6 mph N/A   Mostly Cloudy
2:16 PM 89.6 °F 30.2 °F 12% 30.28 in 10.0 mi SW 16.1 mph 29.9 mph N/A   Scattered Clouds
2:36 PM 86.0 °F 30.2 °F 13% 30.28 in 10.0 mi SW 17.3 mph 23.0 mph N/A   Mostly Cloudy
2:56 PM 82.4 °F 28.4 °F 14% 30.29 in 10.0 mi West 21.9 mph 28.8 mph N/A   Overcast
3:16 PM 77.0 °F 32.0 °F 19% 30.31 in 10.0 mi North 12.7 mph 19.6 mph N/A   Overcast
3:36 PM 73.4 °F 32.0 °F 22% 30.31 in 10.0 mi North 12.7 mph 18.4 mph N/A   Overcast
3:56 PM 75.2 °F 32.0 °F 21% 30.32 in 10.0 mi WNW 8.1 mph - N/A   Overcast
4:16 PM 75.2 °F 32.0 °F 21% 30.31 in 10.0 mi NW 3.5 mph 10.4 mph N/A   Overcast
4:36 PM 77.0 °F 32.0 °F 19% 30.31 in 10.0 mi West 13.8 mph 18.4 mph N/A   Mostly Cloudy
4:56 PM 77.0 °F 33.8 °F 21% 30.31 in 10.0 mi West 6.9 mph - N/A   Mostly Cloudy
5:16 PM 73.4 °F 32.0 °F 22% 30.30 in 10.0 mi West 15.0 mph 19.6 mph N/A   Mostly Cloudy
5:35 PM 77.0 °F 32.0 °F 19% 30.29 in 10.0 mi WSW 15.0 mph 23.0 mph N/A   Scattered Clouds
5:56 PM 78.8 °F 32.0 °F 18% 30.28 in 10.0 mi SW 10.4 mph 19.6 mph N/A   Scattered Clouds
6:15 PM 77.0 °F 32.0 °F 19% 30.27 in 10.0 mi WSW 13.8 mph 17.3 mph N/A   Scattered Clouds
6:36 PM 77.0 °F 32.0 °F 19% 30.26 in 10.0 mi WSW 8.1 mph 18.4 mph N/A   Clear
6:55 PM 73.4 °F 32.0 °F 22% 30.26 in 10.0 mi West 10.4 mph - N/A   Clear
7:16 PM 73.4 °F 32.0 °F 22% 30.26 in 10.0 mi WSW 4.6 mph - N/A   Clear
7:36 PM 73.4 °F 33.8 °F 23% 30.26 in 10.0 mi Calm Calm - N/A   Clear
7:56 PM 73.4 °F 33.8 °F 23% 30.27 in 10.0 mi Calm Calm - N/A   Clear
8:16 PM 71.6 °F 33.8 °F 25% 30.28 in 10.0 mi North 3.5 mph - N/A   Scattered Clouds
8:36 PM 71.6 °F 35.6 °F 27% 30.28 in 10.0 mi Calm Calm - N/A   Mostly Cloudy
8:56 PM 69.8 °F 33.8 °F 27% 30.28 in 10.0 mi ESE 3.5 mph - N/A   Scattered Clouds
9:16 PM 69.8 °F 41.0 °F 35% 30.29 in 10.0 mi East 9.2 mph - N/A   Clear
9:36 PM 69.8 °F 41.0 °F 35% 30.29 in 10.0 mi East 9.2 mph - N/A   Scattered Clouds
9:56 PM 69.8 °F 41.0 °F 35% 30.30 in 10.0 mi ENE 4.6 mph - N/A   Scattered Clouds
10:15 PM 66.2 °F 41.0 °F 40% 30.31 in 10.0 mi North 4.6 mph - N/A   Mostly Cloudy
10:35 PM 68.0 °F 41.0 °F 37% 30.31 in 10.0 mi Calm Calm - N/A   Overcast
10:55 PM 64.4 °F 41.0 °F 42% 30.31 in 10.0 mi West 3.5 mph - N/A   Overcast
11:16 PM 64.4 °F 41.0 °F 42% 30.30 in 10.0 mi SE 5.8 mph - N/A   Overcast
11:36 PM 64.4 °F 41.0 °F 42% 30.29 in 10.0 mi East 5.8 mph - N/A   Mostly Cloudy
11:56 PM 64.4 °F 41.0 °F 42% 30.29 in 10.0 mi South 3.5 mph - N/A   Mostly Cloudy